Location: Unspecified
(0.0000°N, 0.0000°E)
Time: 03:39:48
(UTC+00:00)

S-56A Canister/Altair - Pass Details

Date: 21 December 2018
Orbit: 633 x 2500 km, 38.9° (Epoch: 18 March)

Event Time Altitude Azimuth Distance (km) Brightness Sun altitude
Rises 21:13:53 0° 228° (SW) 2,924 11.3 -43.7°
Enters shadow 21:15:14 - 228° (SW) 2,368 10.7 -44.0°
Reaches altitude 10° 21:16:07 10° 228° (SW) 2,006 - -44.2°
Maximum altitude 21:20:32 86° 139° (SE) 677 - -45.1°
Drops below altitude 10° 21:25:48 10° 50° (NE) 2,372 - -46.2°
Sets 21:28:38 0° 49° (NE) 3,514 - -46.8°
